Weather History for Oakland, CA

Change the Weather History Date:

Tuesday, February 19, 2013

  Actual Average Record
Temperature  
Mean Temperature 47 °F 52 °F  
Max Temperature 51 °F 60 °F 72 °F (1964)
Min Temperature 42 °F 45 °F 35 °F (1955)
Degree Days  
Heating Degree Days 18 12  
Month to date heating degree days 257 254  
Since 1 July heating degree days 1794 1913  
Cooling Degree Days 0 0  
Month to date cooling degree days 0 0  
Year to date cooling degree days 0 0  
Moisture  
Dew Point 43 °F    
Average Humidity 82    
Maximum Humidity 100    
Minimum Humidity 63    
Precipitation  
Precipitation 0.28 in 0.15 in 0.97 in (1980)
Month to date precipitation 0.52 2.50  
Year to date precipitation 0.81 6.49  
Since 1 July precipitation 11.80 14.08  
Sea Level Pressure  
Sea Level Pressure 29.88 in    
Wind  
Wind Speed 13 mph (West)    
Max Wind Speed 28 mph    
Max Gust Speed 36 mph    
Visibility 10 miles    
Events Rain    
T = Trace of Precipitation, MM = Missing Value Source: NWS Daily Summary

Daily Weather History Graph

Daily Weather History Graph

Search for Another Location

Airport:

Trip Planner

Search our weather history database for the weather conditions in past years. The results will help you decide how hot, cold, wet, or windy it might be!

Date:

Astronomy

Feb. 19, 2013 Rise Set
Actual Time 6:53 AM PST 5:52 PM PST
Civil Twilight 6:26 AM PST 6:19 PM PST
Nautical Twilight 5:56 AM PST 6:49 PM PST
Astronomical Twilight 5:25 AM PST 7:20 PM PST
Moon 12:32 PM PST (2/19) 2:26 AM PST (2/19)
Length of Visible Light 11h 52m
Length of Day
10h 59m
Waxing Gibbous, 68% of the Moon is Illuminated
Feb 19
Waxing Gibbous
Feb 25
Full
Mar 4
Last Quarter
Mar 11
New
Mar 19
First Quarter

Hourly Weather History & Observations

Time (PST) Temp. Windchill Dew Point Humidity Pressure Visibility Wind Dir Wind Speed Gust Speed Precip Events Conditions
12:53 AM 51.1 °F - 43.0 °F 74% 30.00 in 10.0 mi West 13.8 mph - N/A   Overcast
1:29 AM 50.0 °F - 42.8 °F 76% 30.00 in 10.0 mi West 16.1 mph - N/A   Overcast
1:53 AM 50.0 °F - 44.1 °F 80% 29.98 in 10.0 mi WNW 17.3 mph - N/A   Overcast
2:05 AM 50.0 °F - 44.6 °F 82% 29.98 in 10.0 mi WNW 10.4 mph - N/A   Overcast
2:38 AM 50.0 °F - 42.8 °F 76% 29.97 in 10.0 mi West 12.7 mph - N/A   Overcast
2:53 AM 50.0 °F - 44.1 °F 80% 29.96 in 10.0 mi West 6.9 mph - N/A   Overcast
3:02 AM 50.0 °F - 44.6 °F 82% 29.96 in 10.0 mi West 8.1 mph - N/A   Overcast
3:29 AM 50.0 °F - 44.6 °F 82% 29.96 in 10.0 mi West 8.1 mph - N/A   Overcast
3:53 AM 50.0 °F - 44.6 °F 82% 29.95 in 10.0 mi West 6.9 mph - N/A   Overcast
4:53 AM 51.1 °F - 44.1 °F 77% 29.94 in 10.0 mi SSW 9.2 mph - N/A   Overcast
5:33 AM 50.0 °F - 44.6 °F 82% 29.93 in 10.0 mi SSW 11.5 mph - N/A   Mostly Cloudy
5:53 AM 51.1 °F - 45.0 °F 80% 29.93 in 10.0 mi SSW 10.4 mph 16.1 mph N/A   Mostly Cloudy
6:53 AM 48.9 °F - 48.0 °F 97% 29.91 in 10.0 mi South 10.4 mph - 0.01 in   Overcast
7:30 AM 50.0 °F - 48.2 °F 94% 29.89 in 10.0 mi South 16.1 mph - N/A   Overcast
7:53 AM 50.0 °F - 48.9 °F 96% 29.88 in 8.0 mi South 15.0 mph - 0.00 in Rain Light Rain
8:53 AM 51.1 °F - 48.0 °F 89% 29.86 in 10.0 mi South 18.4 mph - 0.00 in   Overcast
9:44 AM 48.2 °F - 48.2 °F 100% 29.86 in 5.0 mi SW 15.0 mph - 0.04 in Rain Light Rain
10:53 AM 48.0 °F - 46.0 °F 93% 29.86 in 6.0 mi West 11.5 mph 28.8 mph 0.11 in Rain Rain
11:53 AM 48.0 °F - 46.0 °F 93% 29.84 in 10.0 mi Calm Calm - 0.03 in   Overcast
12:53 PM 46.9 °F - 43.0 °F 86% 29.83 in 6.0 mi WNW 18.4 mph 25.3 mph 0.06 in Rain Light Rain
1:04 PM 46.4 °F 38.5 °F 42.8 °F 87% 29.83 in 8.0 mi WNW 21.9 mph - 0.00 in Rain Light Rain
1:53 PM 50.0 °F - 44.1 °F 80% 29.82 in 10.0 mi WNW 10.4 mph - 0.02 in   Mostly Cloudy
2:53 PM 51.1 °F - 42.1 °F 71% 29.80 in 10.0 mi WNW 18.4 mph 24.2 mph N/A   Mostly Cloudy
4:53 PM 48.9 °F - 39.0 °F 69% 29.77 in 10.0 mi WNW 19.6 mph 25.3 mph N/A   Mostly Cloudy
5:53 PM 48.0 °F - 37.9 °F 68% 29.78 in 10.0 mi WNW 17.3 mph - N/A   Mostly Cloudy
6:53 PM 46.9 °F - 35.1 °F 63% 29.79 in 10.0 mi WNW 18.4 mph 23.0 mph N/A   Partly Cloudy
7:53 PM 46.9 °F - 37.0 °F 68% 29.80 in 10.0 mi WNW 15.0 mph 19.6 mph N/A   Partly Cloudy
8:53 PM 46.0 °F 39.9 °F 37.9 °F 73% 29.81 in 10.0 mi NW 13.8 mph 19.6 mph N/A   Partly Cloudy
9:53 PM 44.1 °F 40.1 °F 36.0 °F 73% 29.83 in 10.0 mi North 6.9 mph - N/A   Partly Cloudy
10:53 PM 43.0 °F 39.5 °F 36.0 °F 76% 29.85 in 10.0 mi North 5.8 mph - N/A   Scattered Clouds
11:53 PM 45.0 °F 39.3 °F 37.0 °F 74% 29.86 in 10.0 mi NNW 11.5 mph - N/A   Mostly Cloudy